Time,TemperatureF,DewpointF,PressureIn,WindDirection,WindDirectionDegrees,WindSpeedMPH,WindSpeedGustMPH,Humidity,HourlyPrecipIn,Conditions,Clouds,dailyrainin,SolarRadiationWatts/m^2,SoftwareType,DateUTC
2013-01-01 00:02:00,55.6,52.4,30.23,NE,42,0.0,0.0,89,0.00,,,0.00,0,Wunderground v.1.15,2013-01-01 05:02:00,
2013-01-01 00:07:00,55.7,52.5,30.23,NE,42,0.0,0.0,89,0.00,,,0.00,0,Wunderground v.1.15,2013-01-01 05:07:00,
2013-01-01 00:12:00,55.9,52.7,30.22,NE,42,0.0,0.0,89,0.00,,,0.00,0,Wunderground v.1.15,2013-01-01 05:12:00,
2013-01-01 00:17:00,55.7,52.5,30.22,NE,42,0.0,0.0,89,0.00,,,0.00,0,Wunderground v.1.15,2013-01-01 05:17:00,
2013-01-01 00:27:00,55.7,52.8,30.22,NE,42,0.0,1.0,90,0.00,,,0.00,0,Wunderground v.1.15,2013-01-01 05:27:00,
2013-01-01 00:32:00,55.7,52.8,30.22,NE,42,0.0,0.0,90,0.00,,,0.00,0,Wunderground v.1.15,2013-01-01 05:32:00,
2013-01-01 00:37:00,55.7,52.8,30.22,NE,41,0.0,0.0,90,0.00,,,0.00,0,Wunderground v.1.15,2013-01-01 05:37:00,
2013-01-01 00:42:00,55.6,52.7,30.22,NE,42,0.0,0.0,90,0.00,,,0.00,0,Wunderground v.1.15,2013-01-01 05:42:00,
2013-01-01 00:47:00,55.6,52.7,30.22,NE,42,0.0,0.0,90,0.00,,,0.00,0,Wunderground v.1.15,2013-01-01 05:47:00,
2013-01-01 00:57:00,55.4,52.5,30.22,NE,42,0.0,0.0,90,0.00,,,0.00,0,Wunderground v.1.15,2013-01-01 05:57:00,
2013-01-01 01:02:00,55.3,52.4,30.22,NE,42,0.0,0.0,90,0.00,,,0.00,0,Wunderground v.1.15,2013-01-01 06:02:00,
2013-01-01 01:12:00,55.1,52.2,30.22,NE,42,0.0,0.0,90,0.00,,,0.00,0,Wunderground v.1.15,2013-01-01 06:12:00,
2013-01-01 01:17:00,55.0,52.1,30.22,NE,41,0.0,0.0,90,0.00,,,0.00,0,Wunderground v.1.15,2013-01-01 06:17:00,
2013-01-01 01:22:00,55.0,52.1,30.21,NE,42,0.0,0.0,90,0.00,,,0.00,0,Wunderground v.1.15,2013-01-01 06:22:00,
2013-01-01 01:27:00,54.8,51.9,30.21,NE,42,0.0,0.0,90,0.00,,,0.00,0,Wunderground v.1.15,2013-01-01 06:27:00,
2013-01-01 01:32:00,54.8,52.2,30.21,NE,42,0.0,0.0,91,0.00,,,0.00,0,Wunderground v.1.15,2013-01-01 06:32:00,
2013-01-01 01:37:00,54.8,52.2,30.21,NE,42,0.0,0.0,91,0.00,,,0.00,0,Wunderground v.1.15,2013-01-01 06:37:00,
2013-01-01 01:47:00,54.8,52.2,30.21,NE,42,0.0,0.0,91,0.00,,,0.00,0,Wunderground v.1.15,2013-01-01 06:47:00,
2013-01-01 01:52:00,54.7,52.1,30.20,NE,42,0.0,0.0,91,0.00,,,0.00,0,Wunderground v.1.15,2013-01-01 06:52:00,
2013-01-01 01:57:00,54.7,52.1,30.20,NE,42,0.0,0.0,91,0.00,,,0.00,0,Wunderground v.1.15,2013-01-01 06:57:00,
2013-01-01 02:02:00,54.7,52.1,30.20,NE,42,0.0,0.0,91,0.00,,,0.00,0,Wunderground v.1.15,2013-01-01 07:02:00,
2013-01-01 02:12:00,54.7,52.4,30.19,NE,42,0.0,0.0,92,0.00,,,0.00,0,Wunderground v.1.15,2013-01-01 07:12:00,
2013-01-01 02:22:00,55.0,52.7,30.19,NE,42,0.0,0.0,92,0.00,,,0.00,0,Wunderground v.1.15,2013-01-01 07:22:00,
2013-01-01 02:27:00,55.1,52.8,30.19,NE,42,0.0,0.0,92,0.00,,,0.00,0,Wunderground v.1.15,2013-01-01 07:27:00,
2013-01-01 02:37:00,55.7,53.7,30.18,NE,42,0.0,1.0,93,0.00,,,0.00,0,Wunderground v.1.15,2013-01-01 07:37:00,
2013-01-01 02:42:00,55.7,53.7,30.18,NE,42,0.0,0.0,93,0.00,,,0.00,0,Wunderground v.1.15,2013-01-01 07:42:00,
2013-01-01 02:52:00,56.0,54.0,30.18,NE,42,0.0,0.0,93,0.00,,,0.00,0,Wunderground v.1.15,2013-01-01 07:52:00,
2013-01-01 03:02:00,56.3,54.3,30.18,NE,42,0.0,0.0,93,0.00,,,0.00,0,Wunderground v.1.15,2013-01-01 08:02:00,
2013-01-01 03:07:00,56.5,54.5,30.18,NE,42,0.0,0.0,93,0.00,,,0.00,0,Wunderground v.1.15,2013-01-01 08:07:00,
2013-01-01 03:17:00,56.6,54.6,30.18,NE,42,0.0,0.0,93,0.00,,,0.00,0,Wunderground v.1.15,2013-01-01 08:17:00,
2013-01-01 03:22:00,56.6,54.6,30.18,NE,42,0.0,0.0,93,0.00,,,0.00,0,Wunderground v.1.15,2013-01-01 08:22:00,
2013-01-01 03:32:00,56.7,54.7,30.17,NE,40,0.0,0.0,93,0.00,,,0.00,0,Wunderground v.1.15,2013-01-01 08:32:00,
2013-01-01 03:37:00,56.9,55.2,30.17,NE,42,0.0,0.0,94,0.00,,,0.00,0,Wunderground v.1.15,2013-01-01 08:37:00,
2013-01-01 03:47:00,56.9,55.2,30.17,NE,42,0.0,0.0,94,0.00,,,0.00,0,Wunderground v.1.15,2013-01-01 08:47:00,
2013-01-01 03:52:00,56.9,55.2,30.17,NE,42,0.0,0.0,94,0.00,,,0.00,0,Wunderground v.1.15,2013-01-01 08:52:00,
2013-01-01 03:57:00,56.9,55.2,30.17,NE,42,0.0,0.0,94,0.00,,,0.00,0,Wunderground v.1.15,2013-01-01 08:57:00,
2013-01-01 04:07:00,56.7,55.0,30.16,NE,42,0.0,1.0,94,0.00,,,0.00,0,Wunderground v.1.15,2013-01-01 09:07:00,
2013-01-01 04:17:00,56.5,54.8,30.16,NE,42,0.0,0.0,94,0.00,,,0.00,0,Wunderground v.1.15,2013-01-01 09:17:00,
2013-01-01 04:22:00,56.3,54.3,30.15,NE,41,0.0,0.0,93,0.00,,,0.00,0,Wunderground v.1.15,2013-01-01 09:22:00,
2013-01-01 04:27:00,56.2,54.2,30.15,NE,42,0.0,0.0,93,0.00,,,0.00,0,Wunderground v.1.15,2013-01-01 09:27:00,
2013-01-01 04:32:00,56.0,54.0,30.15,NE,42,0.0,0.0,93,0.00,,,0.00,0,Wunderground v.1.15,2013-01-01 09:32:00,
2013-01-01 04:42:00,55.7,53.7,30.15,NE,42,0.0,0.0,93,0.00,,,0.00,0,Wunderground v.1.15,2013-01-01 09:42:00,
2013-01-01 04:52:00,55.4,53.4,30.15,NE,42,0.0,0.0,93,0.00,,,0.00,0,Wunderground v.1.15,2013-01-01 09:52:00,
2013-01-01 04:57:00,55.3,53.3,30.15,NE,42,0.0,0.0,93,0.00,,,0.00,0,Wunderground v.1.15,2013-01-01 09:57:00,
2013-01-01 05:02:00,55.1,53.1,30.15,NE,42,0.0,0.0,93,0.00,,,0.00,0,Wunderground v.1.15,2013-01-01 10:02:00,
2013-01-01 05:12:00,54.8,52.8,30.15,NE,42,0.0,0.0,93,0.00,,,0.00,0,Wunderground v.1.15,2013-01-01 10:12:00,
2013-01-01 05:22:00,54.5,52.5,30.15,NE,42,0.0,0.0,93,0.00,,,0.00,0,Wunderground v.1.15,2013-01-01 10:22:00,
2013-01-01 05:27:00,54.4,52.4,30.15,NE,42,0.0,0.0,93,0.00,,,0.00,0,Wunderground v.1.15,2013-01-01 10:27:00,
2013-01-01 05:37:00,53.9,51.9,30.15,NE,42,0.0,0.0,93,0.00,,,0.00,0,Wunderground v.1.15,2013-01-01 10:37:00,
2013-01-01 05:47:00,53.6,51.6,30.15,NE,42,0.0,0.0,93,0.00,,,0.00,0,Wunderground v.1.15,2013-01-01 10:47:00,
2013-01-01 05:57:00,53.3,51.3,30.14,NE,42,0.0,0.0,93,0.00,,,0.00,0,Wunderground v.1.15,2013-01-01 10:57:00,
2013-01-01 06:07:00,53.3,51.3,30.14,NE,42,0.0,0.0,93,0.00,,,0.00,0,Wunderground v.1.15,2013-01-01 11:07:00,
2013-01-01 06:17:00,53.3,51.6,30.13,ESE,103,1.0,2.0,94,0.00,,,0.00,0,Wunderground v.1.15,2013-01-01 11:17:00,
2013-01-01 06:22:00,53.6,51.9,30.13,ESE,107,2.0,2.0,94,0.00,,,0.00,0,Wunderground v.1.15,2013-01-01 11:22:00,
2013-01-01 06:27:00,53.9,52.2,30.14,East,96,2.0,2.0,94,0.00,,,0.00,0,Wunderground v.1.15,2013-01-01 11:27:00,
2013-01-01 06:37:00,54.7,53.0,30.14,ESE,102,1.0,1.0,94,0.00,,,0.00,0,Wunderground v.1.15,2013-01-01 11:37:00,
2013-01-01 06:42:00,54.8,53.4,30.15,ESE,102,1.0,2.0,95,0.00,,,0.00,0,Wunderground v.1.15,2013-01-01 11:42:00,
2013-01-01 06:52:00,55.0,53.3,30.15,ESE,102,0.0,1.0,94,0.00,,,0.00,0,Wunderground v.1.15,2013-01-01 11:52:00,
2013-01-01 06:57:00,55.0,53.6,30.16,ESE,102,0.0,1.0,95,0.00,,,0.00,0,Wunderground v.1.15,2013-01-01 11:57:00,
2013-01-01 07:02:00,55.0,53.3,30.16,ESE,102,0.0,0.0,94,0.00,,,0.00,0,Wunderground v.1.15,2013-01-01 12:02:00,
2013-01-01 07:12:00,54.8,53.1,30.16,ESE,102,0.0,0.0,94,0.00,,,0.00,0,Wunderground v.1.15,2013-01-01 12:12:00,
2013-01-01 07:17:00,54.7,53.0,30.16,ESE,102,0.0,0.0,94,0.00,,,0.00,0,Wunderground v.1.15,2013-01-01 12:17:00,
2013-01-01 07:27:00,54.5,52.8,30.16,ESE,102,0.0,0.0,94,0.00,,,0.00,0,Wunderground v.1.15,2013-01-01 12:27:00,
2013-01-01 07:37:00,54.2,52.5,30.17,ESE,102,0.0,0.0,94,0.00,,,0.00,7,Wunderground v.1.15,2013-01-01 12:37:00,
2013-01-01 07:42:00,54.1,52.4,30.17,ESE,102,0.0,0.0,94,0.00,,,0.00,14,Wunderground v.1.15,2013-01-01 12:42:00,
2013-01-01 07:52:00,53.9,52.5,30.17,SSE,165,0.0,0.0,95,0.00,,,0.00,33,Wunderground v.1.15,2013-01-01 12:52:00,
2013-01-01 07:57:00,53.9,52.5,30.17,SSE,165,0.0,0.0,95,0.00,,,0.00,30,Wunderground v.1.15,2013-01-01 12:57:00,
2013-01-01 08:07:00,54.1,52.7,30.16,SSE,160,0.0,0.0,95,0.00,,,0.00,48,Wunderground v.1.15,2013-01-01 13:07:00,
2013-01-01 08:17:00,56.6,55.5,30.16,SSE,165,0.0,1.0,96,0.00,,,0.00,51,Wunderground v.1.15,2013-01-01 13:17:00,
2013-01-01 08:22:00,57.5,56.4,30.16,SE,141,0.0,0.0,96,0.00,,,0.00,69,Wunderground v.1.15,2013-01-01 13:22:00,
2013-01-01 08:27:00,58.1,57.0,30.16,SE,141,1.0,1.0,96,0.00,,,0.00,146,Wunderground v.1.15,2013-01-01 13:27:00,
2013-01-01 08:37:00,59.2,57.8,30.16,ESE,104,1.0,1.0,95,0.00,,,0.00,181,Wunderground v.1.15,2013-01-01 13:37:00,
2013-01-01 08:47:00,60.4,59.0,30.16,East,86,2.0,2.0,95,0.00,,,0.00,213,Wunderground v.1.15,2013-01-01 13:47:00,
2013-01-01 08:52:00,61.2,59.5,30.16,East,96,2.0,3.0,94,0.00,,,0.00,230,Wunderground v.1.15,2013-01-01 13:52:00,
2013-01-01 09:02:00,62.7,59.7,30.16,ESE,123,1.0,1.0,90,0.00,,,0.00,262,Wunderground v.1.15,2013-01-01 14:02:00,
2013-01-01 09:07:00,63.5,60.2,30.17,SE,134,2.0,3.0,89,0.00,,,0.00,290,Wunderground v.1.15,2013-01-01 14:07:00,
2013-01-01 09:17:00,64.8,59.5,30.17,ESE,112,3.0,4.0,83,0.00,,,0.00,322,Wunderground v.1.15,2013-01-01 14:17:00,
2013-01-01 09:22:00,65.3,59.7,30.17,East,100,4.0,5.0,82,0.00,,,0.00,341,Wunderground v.1.15,2013-01-01 14:22:00,
2013-01-01 09:32:00,66.0,59.7,30.17,SE,137,5.0,6.0,80,0.00,,,0.00,361,Wunderground v.1.15,2013-01-01 14:32:00,
2013-01-01 09:42:00,67.6,60.1,30.17,SE,143,4.0,4.0,77,0.00,,,0.00,384,Wunderground v.1.15,2013-01-01 14:42:00,
2013-01-01 09:47:00,67.9,59.7,30.17,ESE,120,4.0,4.0,75,0.00,,,0.00,399,Wunderground v.1.15,2013-01-01 14:47:00,
2013-01-01 09:57:00,69.4,60.4,30.16,ESE,117,4.0,5.0,73,0.00,,,0.00,433,Wunderground v.1.15,2013-01-01 14:57:00,
2013-01-01 10:02:00,70.3,59.6,30.16,SE,136,4.0,7.0,69,0.00,,,0.00,449,Wunderground v.1.15,2013-01-01 15:02:00,
2013-01-01 10:12:00,71.1,59.6,30.16,ESE,120,5.0,5.0,67,0.00,,,0.00,479,Wunderground v.1.15,2013-01-01 15:12:00,
2013-01-01 10:17:00,71.6,59.2,30.16,South,179,6.0,6.0,65,0.00,,,0.00,491,Wunderground v.1.15,2013-01-01 15:17:00,
2013-01-01 10:27:00,72.5,59.6,30.16,SE,136,5.0,8.0,64,0.00,,,0.00,512,Wunderground v.1.15,2013-01-01 15:27:00,
2013-01-01 10:32:00,72.7,59.4,30.17,SSE,162,6.0,10.0,63,0.00,,,0.00,521,Wunderground v.1.15,2013-01-01 15:32:00,
2013-01-01 10:37:00,72.7,59.4,30.16,SE,137,7.0,10.0,63,0.00,,,0.00,531,Wunderground v.1.15,2013-01-01 15:37:00,
2013-01-01 10:47:00,73.3,58.6,30.16,SE,134,6.0,7.0,60,0.00,,,0.00,552,Wunderground v.1.15,2013-01-01 15:47:00,
2013-01-01 10:52:00,73.9,58.7,30.16,SE,130,7.0,8.0,59,0.00,,,0.00,563,Wunderground v.1.15,2013-01-01 15:52:00,
2013-01-01 11:02:00,74.7,58.5,30.16,South,188,7.0,7.0,57,0.00,,,0.00,581,Wunderground v.1.15,2013-01-01 16:02:00,
2013-01-01 11:07:00,74.2,58.5,30.15,SE,138,8.0,8.0,58,0.00,,,0.00,588,Wunderground v.1.15,2013-01-01 16:07:00,
2013-01-01 11:12:00,74.2,58.5,30.15,SE,134,9.0,11.0,58,0.00,,,0.00,591,Wunderground v.1.15,2013-01-01 16:12:00,
2013-01-01 11:22:00,74.6,58.4,30.15,ESE,104,8.0,8.0,57,0.00,,,0.00,588,Wunderground v.1.15,2013-01-01 16:22:00,
2013-01-01 11:27:00,74.9,58.6,30.15,SE,128,8.0,8.0,57,0.00,,,0.00,593,Wunderground v.1.15,2013-01-01 16:27:00,
2013-01-01 11:32:00,75.3,58.5,30.15,South,176,7.0,7.0,56,0.00,,,0.00,602,Wunderground v.1.15,2013-01-01 16:32:00,
2013-01-01 11:37:00,75.4,59.1,30.14,SSE,162,6.0,8.0,57,0.00,,,0.00,619,Wunderground v.1.15,2013-01-01 16:37:00,
2013-01-01 11:42:00,75.4,58.1,30.14,SE,128,7.0,15.0,55,0.00,,,0.00,621,Wunderground v.1.15,2013-01-01 16:42:00,
2013-01-01 11:47:00,75.4,58.6,30.14,SE,128,9.0,15.0,56,0.00,,,0.00,628,Wunderground v.1.15,2013-01-01 16:47:00,
2013-01-01 11:52:00,75.8,58.5,30.13,South,178,8.0,8.0,55,0.00,,,0.00,633,Wunderground v.1.15,2013-01-01 16:52:00,
2013-01-01 12:02:00,75.6,58.3,30.13,SSE,147,7.0,8.0,55,0.00,,,0.00,639,Wunderground v.1.15,2013-01-01 17:02:00,
2013-01-01 12:12:00,76.1,58.2,30.13,SSE,158,7.0,7.0,54,0.00,,,0.00,642,Wunderground v.1.15,2013-01-01 17:12:00,
2013-01-01 12:17:00,76.5,58.6,30.12,SSW,192,6.0,7.0,54,0.00,,,0.00,644,Wunderground v.1.15,2013-01-01 17:17:00,
2013-01-01 12:27:00,76.8,58.4,30.12,SW,217,6.0,6.0,53,0.00,,,0.00,644,Wunderground v.1.15,2013-01-01 17:27:00,
2013-01-01 12:32:00,76.3,58.4,30.12,SSW,202,7.0,7.0,54,0.00,,,0.00,646,Wunderground v.1.15,2013-01-01 17:32:00,
2013-01-01 12:37:00,76.1,58.8,30.12,South,169,7.0,15.0,55,0.00,,,0.00,644,Wunderground v.1.15,2013-01-01 17:37:00,
2013-01-01 12:47:00,76.3,58.9,30.10,SW,232,8.0,8.0,55,0.00,,,0.00,649,Wunderground v.1.15,2013-01-01 17:47:00,
2013-01-01 12:57:00,76.5,58.6,30.09,SSE,155,8.0,9.0,54,0.00,,,0.00,642,Wunderground v.1.15,2013-01-01 17:57:00,
2013-01-01 13:02:00,76.8,58.9,30.09,South,188,7.0,7.0,54,0.00,,,0.00,639,Wunderground v.1.15,2013-01-01 18:02:00,
2013-01-01 13:07:00,77.6,59.1,30.09,SE,141,6.0,7.0,53,0.00,,,0.00,635,Wunderground v.1.15,2013-01-01 18:07:00,
2013-01-01 13:12:00,77.2,58.7,30.09,SE,134,7.0,7.0,53,0.00,,,0.00,630,Wunderground v.1.15,2013-01-01 18:12:00,
2013-01-01 13:22:00,76.5,58.6,30.08,SSE,155,8.0,8.0,54,0.00,,,0.00,623,Wunderground v.1.15,2013-01-01 18:22:00,
2013-01-01 13:27:00,76.1,58.8,30.08,SSW,212,9.0,9.0,55,0.00,,,0.00,618,Wunderground v.1.15,2013-01-01 18:27:00,
2013-01-01 13:37:00,76.7,58.8,30.07,ESE,120,8.0,11.0,54,0.00,,,0.00,605,Wunderground v.1.15,2013-01-01 18:37:00,
2013-01-01 13:42:00,76.8,58.4,30.07,SSW,196,10.0,10.0,53,0.00,,,0.00,600,Wunderground v.1.15,2013-01-01 18:42:00,
2013-01-01 13:52:00,76.7,58.3,30.07,SSE,167,6.0,6.0,53,0.00,,,0.00,582,Wunderground v.1.15,2013-01-01 18:52:00,
2013-01-01 14:02:00,76.1,58.8,30.07,South,176,8.0,14.0,55,0.00,,,0.00,565,Wunderground v.1.15,2013-01-01 19:02:00,
2013-01-01 14:12:00,76.0,58.7,30.06,ESE,117,9.0,9.0,55,0.00,,,0.00,551,Wunderground v.1.15,2013-01-01 19:12:00,
2013-01-01 14:17:00,76.7,58.8,30.06,SSE,152,9.0,10.0,54,0.00,,,0.00,540,Wunderground v.1.15,2013-01-01 19:17:00,
2013-01-01 14:27:00,76.7,58.8,30.05,SSE,168,7.0,8.0,54,0.00,,,0.00,524,Wunderground v.1.15,2013-01-01 19:27:00,
2013-01-01 14:32:00,76.7,58.8,30.05,SSE,164,7.0,7.0,54,0.00,,,0.00,514,Wunderground v.1.15,2013-01-01 19:32:00,
2013-01-01 14:42:00,76.3,58.9,30.05,SSE,162,8.0,11.0,55,0.00,,,0.00,491,Wunderground v.1.15,2013-01-01 19:42:00,
2013-01-01 14:52:00,76.3,58.4,30.05,SSE,150,7.0,7.0,54,0.00,,,0.00,470,Wunderground v.1.15,2013-01-01 19:52:00,
2013-01-01 14:57:00,76.5,59.1,30.05,South,178,6.0,7.0,55,0.00,,,0.00,452,Wunderground v.1.15,2013-01-01 19:57:00,
2013-01-01 15:07:00,76.1,58.8,30.06,SSE,151,7.0,11.0,55,0.00,,,0.00,426,Wunderground v.1.15,2013-01-01 20:07:00,
2013-01-01 15:17:00,76.5,59.1,30.06,South,189,6.0,9.0,55,0.00,,,0.00,403,Wunderground v.1.15,2013-01-01 20:17:00,
2013-01-01 15:22:00,76.5,58.6,30.06,SSE,161,5.0,5.0,54,0.00,,,0.00,391,Wunderground v.1.15,2013-01-01 20:22:00,
2013-01-01 15:27:00,75.8,58.5,30.06,SSE,154,6.0,12.0,55,0.00,,,0.00,373,Wunderground v.1.15,2013-01-01 20:27:00,
2013-01-01 15:32:00,75.6,58.8,30.06,SSE,157,7.0,7.0,56,0.00,,,0.00,357,Wunderground v.1.15,2013-01-01 20:32:00,
2013-01-01 15:42:00,75.6,58.8,30.06,SSW,199,6.0,8.0,56,0.00,,,0.00,324,Wunderground v.1.15,2013-01-01 20:42:00,
2013-01-01 15:52:00,75.3,59.0,30.06,South,169,6.0,8.0,57,0.00,,,0.00,297,Wunderground v.1.15,2013-01-01 20:52:00,
2013-01-01 16:02:00,75.1,58.8,30.06,South,182,6.0,6.0,57,0.00,,,0.00,266,Wunderground v.1.15,2013-01-01 21:02:00,
2013-01-01 16:07:00,74.7,58.5,30.06,South,185,6.0,6.0,57,0.00,,,0.00,245,Wunderground v.1.15,2013-01-01 21:07:00,
2013-01-01 16:17:00,74.6,58.4,30.06,South,189,5.0,5.0,57,0.00,,,0.00,215,Wunderground v.1.15,2013-01-01 21:17:00,
2013-01-01 16:22:00,74.6,58.4,30.06,SSE,168,5.0,5.0,57,0.00,,,0.00,199,Wunderground v.1.15,2013-01-01 21:22:00,
2013-01-01 16:32:00,74.0,58.3,30.06,SSW,205,6.0,6.0,58,0.00,,,0.00,169,Wunderground v.1.15,2013-01-01 21:32:00,
2013-01-01 16:37:00,74.0,58.3,30.06,South,182,5.0,6.0,58,0.00,,,0.00,150,Wunderground v.1.15,2013-01-01 21:37:00,
2013-01-01 16:47:00,73.9,58.7,30.07,South,189,4.0,11.0,59,0.00,,,0.00,125,Wunderground v.1.15,2013-01-01 21:47:00,
2013-01-01 16:52:00,73.7,58.5,30.06,SSE,160,4.0,4.0,59,0.00,,,0.00,104,Wunderground v.1.15,2013-01-01 21:52:00,
2013-01-01 17:02:00,73.9,58.7,30.06,SSE,158,3.0,7.0,59,0.00,,,0.00,51,Wunderground v.1.15,2013-01-01 22:02:00,
2013-01-01 17:12:00,73.7,58.5,30.07,SW,219,2.0,2.0,59,0.00,,,0.00,26,Wunderground v.1.15,2013-01-01 22:12:00,
2013-01-01 17:22:00,73.5,58.8,30.07,SW,216,1.0,1.0,60,0.00,,,0.00,14,Wunderground v.1.15,2013-01-01 22:22:00,
2013-01-01 17:27:00,73.3,58.6,30.07,SSE,165,2.0,2.0,60,0.00,,,0.00,12,Wunderground v.1.15,2013-01-01 22:27:00,
2013-01-01 17:32:00,73.3,59.0,30.07,SSE,161,2.0,2.0,61,0.00,,,0.00,9,Wunderground v.1.15,2013-01-01 22:32:00,
2013-01-01 17:42:00,73.0,58.8,30.06,South,171,1.0,1.0,61,0.00,,,0.00,0,Wunderground v.1.15,2013-01-01 22:42:00,
2013-01-01 17:52:00,72.8,59.0,30.07,South,181,1.0,1.0,62,0.00,,,0.00,0,Wunderground v.1.15,2013-01-01 22:52:00,
2013-01-01 17:57:00,72.7,58.9,30.07,South,174,1.0,1.0,62,0.00,,,0.00,0,Wunderground v.1.15,2013-01-01 22:57:00,
2013-01-01 18:02:00,72.5,58.7,30.07,SSE,161,1.0,3.0,62,0.00,,,0.00,0,Wunderground v.1.15,2013-01-01 23:02:00,
2013-01-01 18:12:00,72.3,59.0,30.06,SSE,167,2.0,2.0,63,0.00,,,0.00,0,Wunderground v.1.15,2013-01-01 23:12:00,
2013-01-01 18:17:00,72.1,58.8,30.06,SSE,160,2.0,2.0,63,0.00,,,0.00,0,Wunderground v.1.15,2013-01-01 23:17:00,
2013-01-01 18:22:00,72.0,59.2,30.07,South,175,2.0,2.0,64,0.00,,,0.00,0,Wunderground v.1.15,2013-01-01 23:22:00,
2013-01-01 18:27:00,72.0,59.2,30.07,SSW,213,1.0,2.0,64,0.00,,,0.00,0,Wunderground v.1.15,2013-01-01 23:27:00,
2013-01-01 18:37:00,71.8,59.0,30.07,South,181,0.0,1.0,64,0.00,,,0.00,0,Wunderground v.1.15,2013-01-01 23:37:00,
2013-01-01 18:42:00,71.6,59.2,30.07,South,181,1.0,2.0,65,0.00,,,0.00,0,Wunderground v.1.15,2013-01-01 23:42:00,
2013-01-01 18:52:00,71.3,58.9,30.07,South,171,1.0,1.0,65,0.00,,,0.00,0,Wunderground v.1.15,2013-01-01 23:52:00,
2013-01-01 19:02:00,71.1,59.2,30.07,South,176,0.0,0.0,66,0.00,,,0.00,0,Wunderground v.1.15,2013-01-02 00:02:00,
2013-01-01 19:12:00,70.9,59.0,30.07,SSW,202,1.0,1.0,66,0.00,,,0.00,0,Wunderground v.1.15,2013-01-02 00:12:00,
2013-01-01 19:17:00,70.8,59.3,30.07,South,178,1.0,1.0,67,0.00,,,0.00,0,Wunderground v.1.15,2013-01-02 00:17:00,
2013-01-01 19:27:00,70.6,59.1,30.07,SSE,161,2.0,2.0,67,0.00,,,0.00,0,Wunderground v.1.15,2013-01-02 00:27:00,
2013-01-01 19:32:00,70.4,58.9,30.07,South,178,2.0,2.0,67,0.00,,,0.00,0,Wunderground v.1.15,2013-01-02 00:32:00,
2013-01-01 19:42:00,70.1,59.0,30.07,SSE,162,3.0,3.0,68,0.00,,,0.00,0,Wunderground v.1.15,2013-01-02 00:42:00,
2013-01-01 19:47:00,69.9,59.3,30.07,South,179,3.0,5.0,69,0.00,,,0.00,0,Wunderground v.1.15,2013-01-02 00:47:00,
2013-01-01 19:52:00,69.8,59.2,30.07,SSE,151,3.0,3.0,69,0.00,,,0.00,0,Wunderground v.1.15,2013-01-02 00:52:00,
2013-01-01 20:02:00,69.4,59.2,30.07,SSE,168,2.0,2.0,70,0.00,,,0.00,0,Wunderground v.1.15,2013-01-02 01:02:00,
2013-01-01 20:07:00,69.3,59.1,30.07,SSE,164,2.0,2.0,70,0.00,,,0.00,0,Wunderground v.1.15,2013-01-02 01:07:00,
2013-01-01 20:12:00,69.3,59.1,30.07,South,172,1.0,2.0,70,0.00,,,0.00,0,Wunderground v.1.15,2013-01-02 01:12:00,
2013-01-01 20:17:00,69.1,58.9,30.07,SSE,162,2.0,2.0,70,0.00,,,0.00,0,Wunderground v.1.15,2013-01-02 01:17:00,
2013-01-01 20:27:00,68.8,59.0,30.07,SSE,168,2.0,4.0,71,0.00,,,0.00,0,Wunderground v.1.15,2013-01-02 01:27:00,
2013-01-01 20:37:00,68.6,58.8,30.07,SE,144,2.0,3.0,71,0.00,,,0.00,0,Wunderground v.1.15,2013-01-02 01:37:00,
2013-01-01 20:42:00,68.4,59.0,30.07,SE,141,2.0,2.0,72,0.00,,,0.00,0,Wunderground v.1.15,2013-01-02 01:42:00,
2013-01-01 20:47:00,68.1,58.7,30.07,SE,140,2.0,2.0,72,0.00,,,0.00,0,Wunderground v.1.15,2013-01-02 01:47:00,
2013-01-01 20:52:00,67.9,58.9,30.07,SE,140,2.0,2.0,73,0.00,,,0.00,0,Wunderground v.1.15,2013-01-02 01:52:00,
2013-01-01 20:57:00,67.8,58.8,30.07,SE,140,2.0,2.0,73,0.00,,,0.00,0,Wunderground v.1.15,2013-01-02 01:57:00,
2013-01-01 21:07:00,67.4,58.4,30.07,SE,141,1.0,2.0,73,0.00,,,0.00,0,Wunderground v.1.15,2013-01-02 02:07:00,
2013-01-01 21:17:00,66.9,58.3,30.07,SE,141,1.0,2.0,74,0.00,,,0.00,0,Wunderground v.1.15,2013-01-02 02:17:00,
2013-01-01 21:22:00,66.6,58.1,30.07,SE,137,1.0,2.0,74,0.00,,,0.00,0,Wunderground v.1.15,2013-01-02 02:22:00,
2013-01-01 21:32:00,66.3,58.5,30.06,SSE,167,2.0,2.0,76,0.00,,,0.00,0,Wunderground v.1.15,2013-01-02 02:32:00,
2013-01-01 21:37:00,66.1,58.3,30.06,South,175,1.0,2.0,76,0.00,,,0.00,0,Wunderground v.1.15,2013-01-02 02:37:00,
2013-01-01 21:42:00,66.0,58.2,30.06,SSE,167,1.0,2.0,76,0.00,,,0.00,0,Wunderground v.1.15,2013-01-02 02:42:00,
2013-01-01 21:47:00,65.8,58.4,30.06,SSE,167,1.0,3.0,77,0.00,,,0.00,0,Wunderground v.1.15,2013-01-02 02:47:00,
2013-01-01 21:57:00,65.6,58.6,30.06,SSE,161,2.0,2.0,78,0.00,,,0.00,0,Wunderground v.1.15,2013-01-02 02:57:00,
2013-01-01 22:02:00,65.6,58.6,30.06,SSE,161,1.0,1.0,78,0.00,,,0.00,0,Wunderground v.1.15,2013-01-02 03:02:00,
2013-01-01 22:07:00,65.5,58.5,30.06,South,174,1.0,1.0,78,0.00,,,0.00,0,Wunderground v.1.15,2013-01-02 03:07:00,
2013-01-01 22:17:00,65.5,58.8,30.07,SSE,154,1.0,1.0,79,0.00,,,0.00,0,Wunderground v.1.15,2013-01-02 03:17:00,
2013-01-01 22:27:00,65.2,58.5,30.06,SSE,161,0.0,0.0,79,0.00,,,0.00,0,Wunderground v.1.15,2013-01-02 03:27:00,
2013-01-01 22:32:00,65.2,58.5,30.06,South,174,0.0,0.0,79,0.00,,,0.00,0,Wunderground v.1.15,2013-01-02 03:32:00,
2013-01-01 22:37:00,65.0,58.3,30.06,South,174,0.0,0.0,79,0.00,,,0.00,0,Wunderground v.1.15,2013-01-02 03:37:00,
2013-01-01 22:47:00,64.7,58.0,30.06,South,174,0.0,0.0,79,0.00,,,0.00,0,Wunderground v.1.15,2013-01-02 03:47:00,
2013-01-01 22:52:00,64.5,57.8,30.06,South,184,0.0,0.0,79,0.00,,,0.00,0,Wunderground v.1.15,2013-01-02 03:52:00,
2013-01-01 22:57:00,64.3,58.0,30.06,South,184,0.0,0.0,80,0.00,,,0.00,0,Wunderground v.1.15,2013-01-02 03:57:00,
2013-01-01 23:07:00,63.9,57.6,30.06,South,178,0.0,0.0,80,0.00,,,0.00,0,Wunderground v.1.15,2013-01-02 04:07:00,
2013-01-01 23:12:00,63.7,57.4,30.05,SSE,168,0.0,2.0,80,0.00,,,0.00,0,Wunderground v.1.15,2013-01-02 04:12:00,
2013-01-01 23:22:00,63.5,57.6,30.05,SSE,164,1.0,1.0,81,0.00,,,0.00,0,Wunderground v.1.15,2013-01-02 04:22:00,
2013-01-01 23:27:00,63.5,57.9,30.05,SSE,164,0.0,1.0,82,0.00,,,0.00,0,Wunderground v.1.15,2013-01-02 04:27:00,
2013-01-01 23:32:00,63.4,57.8,30.05,SSE,164,0.0,0.0,82,0.00,,,0.00,0,Wunderground v.1.15,2013-01-02 04:32:00,
2013-01-01 23:37:00,63.4,58.1,30.05,SSE,164,0.0,0.0,83,0.00,,,0.00,0,Wunderground v.1.15,2013-01-02 04:37:00,
2013-01-01 23:47:00,63.1,57.9,30.05,SSE,164,0.0,0.0,83,0.00,,,0.00,0,Wunderground v.1.15,2013-01-02 04:47:00,
2013-01-01 23:57:00,62.6,57.4,30.05,SSE,164,0.0,0.0,83,0.00,,,0.00,0,Wunderground v.1.15,2013-01-02 04:57:00,